Location: Poprad
(49.0500°N, 20.3000°E)
Time: 13:38:52
(UTC+02:00)

AO-73 - Pass Details

Date: 28 April 2024
Orbit: 559 x 625 km, 97.7° (Epoch: 25 May)

Event Time Altitude Azimuth Distance (km) Brightness Sun altitude
Rises 03:27:41 0° 18° (NNE) 2,923 ? -16.2°
Reaches altitude 10° 03:29:58 10° 25° (NNE) 2,013 ? -16.0°
Maximum altitude 03:34:11 45° 98° (E) 865 ? -15.5°
Drops below altitude 10° 03:38:22 10° 172° (S) 1,993 ? -15.0°
Enters shadow 03:38:26 10° 172° (S) 2,022 ? -15.0°
